CAPE
0 0 0 0 6 2 0 0 72 72 211 32 6 0 0 0 0 106 171 30 38 1 9 0 0 0 25 104 125 214 289 306 585 594 723 902 984 962 1213 1276 980 1236 1701 2145
0 0 0 0 0 5 0 1 89 126 143 32 9 2 0 17 75 226 296 258 106 27 28 23 1 37 49 72 170 467 411 133 545 413 823 579 1009 1146 1247 770 913 1486 1803 1851
0 0 0 0 0 0 2 0 37 85 151 108 46 2 5 14 236 307 225 267 224 73 38 37 22 33 32 26 126 740 479 435 608 291 1102 1482 1372 1265 935 571 1013 1352 1625 1679
0 0 0 0 0 0 0 3 7 145 63 24 78 12 64 4 117 100 166 238 348 242 97 83 40 29 22 7 143 872 801 599 316 493 1007 1041 1389 1030 906 567 855 1465 1536 1677
0 0 0 0 0 0 0 12 3 157 56 55 80 39 0 80 10 7 34 242 363 418 251 204 93 27 17 5 208 929 875 616 603 1247 1604 736 1228 1093 751 542 795 1568 1721 2045
0 0 0 0 0 0 0 16 3 43 10 6 0 13 0 64 32 83 82 185 293 503 500 387 280 67 8 13 264 1060 702 506 573 951 1267 1773 1543 902 765 668 825 1229 1618 1555
0 0 0 0 0 0 0 8 5 11 38 0 0 1 0 37 58 129 178 344 414 546 455 530 402 256 69 51 259 1041 787 711 550 528 926 1355 1841 1430 898 870 885 896 1181 1512
0 0 0 0 0 0 0 7 8 0 0 0 2 0 0 3 72 201 274 451 536 605 492 528 475 418 332 150 256 917 930 685 682 600 806 1355 1727 1664 1381 1151 1030 973 987 1569
0 0 0 0 0 0 0 0 0 0 0 0 0 9 90 78 202 350 288 191 452 714 677 569 552 533 461 382 262 616 1197 958 921 835 874 1266 1606 2120 1515 1370 1303 1124 1090 953
0 0 0 0 0 0 0 0 0 0 0 0 0 8 72 172 210 115 40 219 672 849 840 876 786 765 673 543 457 499 879 1081 1009 800 927 1110 1525 2094 1576 1800 1415 1323 1589 1846
0 0 0 0 0 0 0 0 0 0 0 0 0 7 69 117 63 72 202 101 783 1022 768 756 795 891 841 628 586 516 639 828 1146 845 1020 1027 1279 1736 1869 1818 2304 1675 1376 2362
0 0 0 0 0 0 0 0 0 0 0 0 0 19 9 118 29 2 136 88 331 547 863 686 823 790 885 831 752 716 578 638 1142 967 1167 1083 1076 1232 1722 1527 1577 2194 2074 2370
0 0 0 0 0 0 0 0 1 0 0 0 0 0 35 48 158 442 649 845 942 853 1072 1033 867 853 966 959 753 785 712 691 927 1081 1262 1241 1246 1020 1094 1362 1333 1535 2238 2167
0 0 0 0 0 0 0 0 0 14 2 0 0 1 73 93 72 321 971 824 888 1383 1212 1021 917 981 917 922 911 833 760 704 907 1296 1147 1445 1360 1354 996 934 973 1126 1477 2272
0 0 0 0 0 0 0 0 0 8 10 0 9 12 468 96 547 792 882 747 642 1125 1432 1289 1169 1125 988 929 864 822 983 956 1117 1569 1329 1384 1503 1492 1387 1205 1065 846 931 1599
0 0 0 0 0 0 0 1 0 2 1 178 610 1177 1121 1088 934 749 692 622 588 738 1308 1541 1389 1406 1318 1041 1018 1392 985 1380 1403 1491 1674 1601 1710 1743 1731 1673 1505 1304 1193 1001
0 0 0 0 0 0 0 354 384 309 335 431 741 1148 1065 858 839 655 697 644 466 438 726 1008 1300 1402 1327 1240 1315 1649 1775 1690 1526 1692 1694 1694 1815 1941 1937 1883 1763 1677 1558 1353
0 6 0 0 0 2 211 366 392 316 468 799 1018 1077 886 1021 918 780 667 517 359 208 205 354 527 791 1197 1368 1417 1523 1779 2078 2167 1672 1776 1794 1665 1777 1856 1901 1848 1742 1637 1548
0 2 11 0 17 164 225 169 441 444 324 678 726 610 742 762 736 642 535 533 517 245 51 103 238 282 303 385 637 1354 1701 2076 2306 2702 1719 1642 1704 1608 1869 1807 1759 1714 1671 1598
12 1 8 3 9 154 174 182 190 180 223 195 256 529 485 492 347 288 453 333 330 182 16 85 240 269 294 334 375 376 622 1262 1906 2358 2742 2397 2096 1785 1667 1910 1773 1655 1660 1646
24 4 0 14 25 241 185 266 251 315 271 203 200 209 444 352 191 199 171 100 127 71 0 15 132 281 345 382 441 562 804 1015 1523 1869 2245 2500 2530 2387 1991 1852 1900 1809 1699 1649
4 12 173 24 56 91 388 470 302 221 219 301 280 199 113 117 97 103 67 65 66 41 62 0 21 172 196 202 367 482 680 1093 1403 1706 1944 2206 2379 2642 2567 2222 2106 1984 1921 1880
7 43 225 407 495 557 569 444 303 143 104 95 180 155 105 79 19 7 6 4 1 0 0 0 0 36 144 104 159 230 340 618 1210 1776 2099 2298 2981 3075 2931 2704 2498 2342 2224 2131
84 253 383 294 370 330 241 219 97 101 38 98 76 202 150 51 24 47 37 43 15 3 5 3 0 0 0 69 117 116 207 288 614 1118 1937 2303 2469 3173 3437 3163 2798 2650 2545 2549
3 135 152 220 270 150 40 50 86 64 11 26 23 20 236 130 2 0 0 0 0 0 0 0 0 0 0 0 3 61 72 121 249 581 1083 1394 1799 2236 2813 3134 3120 2815 2745 2693
1 13 19 143 175 146 34 0 0 3 13 12 0 6 107 164 52 2 0 0 0 0 0 0 0 0 0 0 0 0 0 12 46 98 463 720 1195 1603 2056 2617 2865 2918 2900 2925
CIN
0 0 0 0 -27 -4 0 0 -42 -42 -272 -353 -319 0 0 -1 0 -53 -10 -36 -4 -12 -113 0 0 0 -170 -94 -96 -88 -60 -77 -80 -58 -68 -18 -19 -44 -43 -53 -89 -15 -22 -39
0 0 0 0 0 -3 0 -6 -37 -136 -257 -145 -335 -126 0 -77 -55 -47 -72 -90 -29 -21 -62 -98 -35 -213 -223 -137 -130 -97 -41 -161 -68 -18 -58 -3 -31 -59 -48 -16 -33 -49 -21 -35
0 0 0 0 0 0 -8 0 -64 -102 -252 -190 -181 -145 -247 -239 -72 -94 -202 -124 -41 -59 -35 -59 -105 -228 -260 -223 -146 -75 -59 -125 -50 -34 -64 -37 -31 -39 -41 -44 -48 -33 -31 -36
0 0 0 0 0 0 0 -27 -24 -150 -158 -100 -159 -49 -167 -180 -62 -241 -206 -205 -77 -59 -47 -55 -73 -241 -224 -203 -176 -54 -105 -68 -82 -164 -36 -33 -18 -14 -50 -56 -42 -28 -41 -22
0 0 0 0 0 0 0 -16 -10 -110 -74 -62 -172 -113 -7 -146 -150 -328 -326 -234 -97 -110 -51 -47 -96 -92 -269 -270 -209 -71 -88 -65 -78 -93 -60 -60 -14 -6 -53 -58 -40 -14 -9 -20
0 0 0 0 0 0 0 -12 -10 -35 -39 -19 -41 -75 0 -270 -37 -56 -56 -47 -85 -92 -88 -43 -46 -80 -128 -386 -210 -87 -114 -93 -53 -65 -42 -48 -48 -67 -83 -104 -58 -35 -14 -24
0 0 0 0 0 0 0 -6 -6 -13 -6 0 0 -38 0 -99 -54 -45 -58 -48 -58 -97 -99 -68 -81 -101 -123 -335 -227 -133 -92 -60 -48 -107 -64 -82 -30 -48 -27 -79 -26 -98 -51 -28
0 0 0 0 0 0 0 -6 -7 0 -2 0 -6 0 0 -17 -100 -51 -57 -73 -63 -68 -111 -93 -91 -95 -104 -110 -289 -180 -169 -132 -116 -145 -112 -84 -61 -44 -30 -57 -89 -95 -68 -26
0 0 0 0 0 0 0 0 0 0 0 0 0 -14 -36 -155 -115 -73 -111 -306 -245 -85 -117 -47 -48 -66 -97 -85 -258 -263 -192 -185 -139 -120 -139 -93 -85 -40 -58 -79 -70 -26 -67 -115
0 0 0 0 0 0 0 0 0 0 0 0 0 -43 -45 -72 -58 -151 -125 -103 -123 -146 -72 -46 -47 -44 -73 -79 -78 -297 -242 -203 -184 -183 -166 -117 -66 -52 -33 -38 -95 -81 -67 -26
0 0 0 0 0 0 0 0 0 0 0 0 0 -22 -30 -45 -52 -44 -55 -46 -68 -44 -59 -83 -84 -38 -32 -41 -44 -78 -279 -221 -164 -206 -196 -130 -104 -75 -50 -72 -49 -46 -95 -48
0 0 0 0 0 0 0 0 0 0 0 0 0 -9 -49 -5 -11 -8 -289 -486 -298 -64 -82 -63 -80 -67 -43 -61 -42 -32 -131 -151 -189 -192 -195 -174 -127 -110 -78 -58 -65 -70 -45 -44
0 0 0 0 0 0 0 0 -1 -1 0 0 0 0 -44 -9 -138 -178 -222 -208 -189 -79 -149 -245 -115 -50 -52 -56 -50 -44 -43 -34 -217 -175 -167 -174 -152 -143 -146 -97 -89 -80 -84 -42
0 0 0 0 0 0 0 0 0 -3 -3 0 0 -13 -30 -76 -67 -127 -269 -250 -74 -88 -125 -17 -190 -63 -51 -44 -25 -37 -33 -50 -244 -188 -186 -176 -169 -156 -168 -170 -141 -152 -121 -74
0 0 0 0 0 0 0 0 0 -2 -1 0 -2 -16 -207 -28 -154 -224 -250 -295 -91 -45 -89 -173 -198 -203 -54 -67 -67 -61 -234 -237 -233 -189 -194 -201 -183 -171 -161 -163 -158 -165 -177 -149
0 0 0 0 0 0 0 -4 -2 -2 -3 -214 -142 -159 -220 -175 -276 -262 -242 -244 -215 -54 -42 -65 -114 -150 -161 -89 -193 -161 -151 -178 -165 -188 -199 -193 -167 -156 -170 -155 -151 -128 -122 -217
0 0 0 0 0 0 0 -130 -152 -247 -262 -144 -124 -132 -160 -208 -197 -207 -171 -108 -73 -37 -21 -60 -72 -89 -76 -122 -126 -139 -115 -121 -152 -134 -151 -160 -154 -143 -152 -152 -123 -112 -114 -127
-3 -101 0 0 0 -26 -101 -98 -164 -240 -201 -152 -139 -102 -74 -143 -149 -115 -72 -83 -64 -58 -36 -25 -41 -43 -54 -58 -69 -91 -85 -74 -75 -147 -114 -96 -123 -152 -147 -122 -112 -107 -116 -113
-2 -76 -91 0 -64 -52 -63 -49 -64 -42 -92 -101 -113 -80 -94 -120 -146 -91 -87 -88 -44 -36 -365 -362 -371 -306 -225 -33 -36 -56 -68 -41 -70 -40 -124 -114 -114 -115 -148 -133 -139 -130 -105 -95
-35 -30 -12 -93 -70 -63 -137 -78 -188 -125 -61 -109 -114 -117 -97 -130 -128 -114 -52 -80 -69 -45 -98 -289 -288 -312 -325 -303 -286 -282 -263 -178 -95 -41 -25 -35 -37 -152 -154 -160 -147 -141 -118 -100
-10 -19 0 -52 -38 -113 -158 -106 -195 -61 -10 -54 -88 -100 -91 -58 -77 -52 -40 -15 -42 -58 0 -261 -269 -277 -286 -277 -313 -290 -269 -225 -118 -75 -50 -35 -31 -32 -117 -92 -148 -135 -117 -98
-21 -68 -89 -63 -128 -35 -104 -107 -111 -94 -4 -3 -11 -109 -39 -79 -39 -39 -37 -24 -20 -27 -25 0 -359 -295 -294 -304 -275 -265 -260 -194 -157 -90 -77 -102 -94 -39 -20 -41 -13 -61 -98 -95
-134 -169 -117 -63 -6 0 -4 -53 -44 -49 -91 -21 -7 -42 -136 -31 -30 -128 -235 -216 -140 0 -3 0 0 -287 -231 -295 -284 -264 -317 -257 -162 -88 -75 -67 -16 -39 -36 -18 -5 -8 -79 -65
-68 -50 -1 -28 0 -2 -8 -6 -3 -32 -79 -142 -21 -5 -60 -146 -102 -169 -111 -203 -160 -310 -277 -354 -126 0 0 -268 -232 -335 -326 -376 -256 -161 -48 -20 -24 -5 -12 -11 -8 -4 -14 -72
-11 -15 -19 -1 0 -15 -68 -51 -29 -13 -1 -16 -42 -33 -14 -18 -54 0 0 0 0 0 0 0 0 0 0 0 -118 -213 -247 -359 -324 -240 -131 -64 -45 -42 -9 -5 -2 -8 -14 -17
0 -5 -17 0 -1 0 -43 0 0 -10 -52 -33 0 -47 -23 -26 -62 -3 0 0 0 0 0 0 -77 0 0 0 0 0 -25 -273 -363 -368 -225 -159 -90 -60 -30 -8 -5 0 -5 -12
Wind_Speed
nan nan nan nan nan nan nan nan nan nan 9 nan nan nan nan nan nan 7 13 nan nan nan nan nan nan nan nan 5 2 1 5 5 7 7 7 10 11 8 9 10 9 4 10 10
nan nan nan nan nan nan nan nan nan 8 10 nan nan nan nan nan nan 6 9 11 8 nan nan nan nan nan nan nan 5 3 2 5 7 6 5 4 5 4 7 7 7 8 10 10
nan nan nan nan nan nan nan nan nan nan 7 7 nan nan nan nan 7 7 4 4 10 nan nan nan nan nan nan nan 6 6 1 3 6 6 8 9 6 6 4 5 7 11 8 11
nan nan nan nan nan nan nan nan nan 15 nan nan nan nan nan nan 14 14 8 6 3 8 nan nan nan nan nan nan 6 9 5 1 5 7 9 8 6 4 5 5 8 8 7 12
nan nan nan nan nan nan nan nan nan 12 nan nan nan nan nan nan nan nan nan 4 7 12 17 16 nan nan nan nan 8 7 6 4 3 3 7 8 6 6 5 6 3 7 8 8
nan nan nan nan nan nan nan nan nan nan nan nan nan nan nan nan nan nan nan 9 10 13 20 20 13 nan nan nan 9 8 7 4 4 2 2 4 5 6 7 7 5 5 9 9
nan nan nan nan nan nan nan nan nan nan nan nan nan nan nan nan nan 18 7 4 14 11 16 15 14 13 nan nan 6 9 10 4 5 4 4 3 5 5 3 6 6 6 7 8
nan nan nan nan nan nan nan nan nan nan nan nan nan nan nan nan nan 16 18 3 7 5 9 12 15 14 15 14 9 7 8 10 6 7 5 6 7 9 9 6 8 8 7 4
nan nan nan nan nan nan nan nan nan nan nan nan nan nan nan nan 22 19 22 6 14 5 6 11 14 14 13 16 15 11 10 9 7 10 9 7 11 10 10 8 9 9 9 7
nan nan nan nan nan nan nan nan nan nan nan nan nan nan nan 25 21 21 nan 17 9 8 15 10 13 13 10 15 16 13 12 11 10 12 11 10 12 14 12 13 10 10 8 5
nan nan nan nan nan nan nan nan nan nan nan nan nan nan nan 19 nan nan 18 28 24 29 25 18 10 11 7 7 14 14 11 11 7 13 16 11 16 15 15 15 14 14 11 10
nan nan nan nan nan nan nan nan nan nan nan nan nan nan nan 19 nan nan 47 nan 41 31 26 22 3 6 10 12 13 17 14 12 9 11 19 17 14 19 17 16 15 17 14 14
nan nan nan nan nan nan nan nan nan nan nan nan nan nan nan nan 50 49 54 49 47 32 26 15 6 0 5 8 12 16 16 16 12 11 16 20 16 15 15 15 17 17 18 15
nan nan nan nan nan nan nan nan nan nan nan nan nan nan nan nan nan 44 45 44 34 41 42 40 26 20 10 15 16 17 15 14 15 16 16 18 17 14 15 18 17 18 18 21
nan nan nan nan nan nan nan nan nan nan nan nan nan nan 34 nan 40 40 47 53 42 49 55 45 37 37 35 25 27 22 16 14 16 16 15 16 17 18 18 18 19 19 19 18
nan nan nan nan nan nan nan nan nan nan nan 49 47 59 55 54 58 52 42 47 48 37 50 48 46 42 41 36 31 31 20 16 17 19 18 16 16 20 22 19 19 20 20 19
nan nan nan nan nan nan nan 62 47 56 66 48 44 49 57 69 66 61 47 44 37 31 42 39 41 40 36 31 29 30 30 23 13 16 22 20 19 18 21 23 24 20 18 21
nan nan nan nan nan nan 44 54 54 60 67 68 59 59 52 64 72 67 49 47 40 41 46 39 43 40 40 36 35 30 29 27 19 14 17 16 18 17 22 27 24 21 22 20
nan nan nan nan nan 45 49 56 50 50 56 70 62 58 54 58 62 61 57 44 48 45 nan 45 44 35 37 40 37 33 32 31 34 31 15 16 15 16 21 25 24 22 25 23
nan nan nan nan nan 50 43 44 38 39 43 59 65 59 52 55 62 60 61 61 54 48 nan nan 47 40 38 42 42 37 34 32 34 32 24 24 14 18 16 18 21 23 26 24
nan nan nan nan nan 48 49 44 45 42 43 49 54 53 61 61 54 57 54 59 57 nan nan nan 56 47 41 40 41 38 36 38 29 30 26 20 19 14 13 17 19 22 25 26
nan nan 39 nan nan nan 54 47 51 46 40 42 54 58 58 56 nan 55 nan nan nan nan nan nan nan 49 43 43 43 40 38 35 33 31 24 29 23 20 19 14 17 20 23 25
nan nan 28 35 42 40 46 56 57 53 25 nan 55 60 59 nan nan nan nan nan nan nan nan nan nan nan 47 42 36 39 36 37 33 36 36 38 31 27 21 21 19 22 22 21
nan 43 44 38 40 53 57 60 nan 64 nan nan nan 53 59 nan nan nan nan nan nan nan nan nan nan nan nan nan 51 46 40 38 40 39 42 47 44 37 32 28 27 26 24 21
nan 42 40 44 47 48 nan nan nan nan nan nan nan nan 61 55 nan nan nan nan nan nan nan nan nan nan nan nan nan nan nan 49 47 51 48 49 50 45 41 39 32 28 24 24
nan nan nan 39 37 41 nan nan nan nan nan nan nan nan 33 46 nan nan nan nan nan nan nan nan nan nan nan nan nan nan nan nan nan nan 55 52 52 53 50 45 43 40 31 29
Wind_Direction
nan nan nan nan nan nan nan nan nan nan 34 nan nan nan nan nan nan 287 214 nan nan nan nan nan nan nan nan 349 301 300 205 176 181 180 177 177 140 127 112 85 67 63 103 92
nan nan nan nan nan nan nan nan nan 179 26 nan nan nan nan nan nan 9 166 195 181 nan nan nan nan nan nan nan 322 314 123 204 175 170 175 182 140 134 83 63 49 49 88 89
nan nan nan nan nan nan nan nan nan nan 59 128 nan nan nan nan 152 42 111 196 173 nan nan nan nan nan nan nan 305 309 27 193 200 169 186 184 189 180 145 86 73 86 106 96
nan nan nan nan nan nan nan nan nan 285 nan nan nan nan nan nan 105 86 63 68 72 107 nan nan nan nan nan nan 254 291 298 196 175 216 191 214 198 180 122 66 85 77 75 93
nan nan nan nan nan nan nan nan nan 260 nan nan nan nan nan nan nan nan nan 87 87 91 54 41 nan nan nan nan 259 281 302 285 196 207 223 208 190 178 163 131 86 110 109 103
nan nan nan nan nan nan nan nan nan nan nan nan nan nan nan nan nan nan nan 94 95 93 58 50 22 nan nan nan 272 268 298 314 262 186 160 223 157 161 181 148 130 123 131 144
nan nan nan nan nan nan nan nan nan nan nan nan nan nan nan nan nan 15 351 124 120 111 80 56 31 15 nan nan 318 283 301 312 268 240 182 160 190 178 178 158 154 150 156 167
nan nan nan nan nan nan nan nan nan nan nan nan nan nan nan nan nan 338 343 49 59 93 100 56 39 15 6 7 350 311 294 309 297 276 219 183 213 203 199 198 181 160 160 192
nan nan nan nan nan nan nan nan nan nan nan nan nan nan nan nan 259 271 307 170 319 275 47 48 37 25 1 1 8 353 315 288 288 280 258 207 213 221 224 218 203 191 187 195
nan nan nan nan nan nan nan nan nan nan nan nan nan nan nan 213 222 240 nan 287 35 21 37 35 34 27 9 358 348 7 1 322 290 274 263 245 222 219 216 229 226 220 199 203
nan nan nan nan nan nan nan nan nan nan nan nan nan nan nan 239 nan nan 254 266 232 172 164 172 16 1 330 335 334 336 339 356 315 273 261 247 239 231 220 218 230 237 222 231
nan nan nan nan nan nan nan nan nan nan nan nan nan nan nan 266 nan nan 240 nan 233 192 188 157 48 300 316 312 328 318 313 322 337 292 264 255 244 240 231 216 214 235 235 237
nan nan nan nan nan nan nan nan nan nan nan nan nan nan nan nan 268 275 264 251 239 217 177 121 335 298 231 269 296 298 304 313 313 311 275 257 252 251 248 232 219 216 239 226
nan nan nan nan nan nan nan nan nan nan nan nan nan nan nan nan nan 263 263 276 233 224 219 212 217 212 228 239 259 270 288 299 306 310 315 272 255 250 250 243 235 223 223 242
nan nan nan nan nan nan nan nan nan nan nan nan nan nan 214 nan 230 237 252 252 261 241 223 220 225 228 226 235 230 233 256 285 300 302 319 314 270 255 245 248 247 239 231 226
nan nan nan nan nan nan nan nan nan nan nan 223 237 230 215 241 236 237 241 241 254 261 238 236 219 235 234 225 228 231 245 250 287 302 309 297 284 269 263 249 247 248 243 237
nan nan nan nan nan nan nan 197 213 222 212 216 228 237 234 229 231 235 235 243 230 242 242 229 232 229 229 228 218 222 223 224 280 291 296 295 274 265 266 262 253 248 248 245
nan nan nan nan nan nan 211 208 223 231 218 210 223 231 231 241 238 238 238 231 237 226 218 237 230 234 237 228 218 211 216 216 226 284 281 284 271 267 260 257 257 254 250 250
nan nan nan nan nan 223 215 208 211 218 214 207 215 228 235 240 236 230 234 231 228 233 nan 239 222 223 225 221 213 217 217 224 230 225 262 275 269 275 268 264 268 262 257 254
nan nan nan nan nan 222 223 207 205 208 211 208 211 212 220 231 239 232 231 231 237 241 nan nan 230 216 220 221 218 227 232 232 226 211 218 225 258 285 287 276 265 263 256 257
nan nan nan nan nan 219 218 202 205 208 204 206 211 214 224 229 232 237 234 231 240 nan nan nan 226 217 223 229 227 225 227 232 245 205 210 223 224 265 270 275 263 261 263 259
nan nan 216 nan nan nan 200 211 227 229 211 207 210 212 228 229 nan 224 nan nan nan nan nan nan nan 230 231 230 234 234 235 227 220 206 226 224 229 241 254 255 257 256 258 263
nan nan 207 221 223 220 213 227 225 229 222 nan 214 213 218 nan nan nan nan nan nan nan nan nan nan nan 229 230 223 226 229 236 233 219 221 228 223 222 247 243 244 249 255 254
nan 216 228 227 218 215 221 222 nan 224 nan nan nan 217 220 nan nan nan nan nan nan nan nan nan nan nan nan nan 230 235 242 245 243 235 227 221 222 219 229 247 253 254 257 256
nan 222 223 232 225 220 nan nan nan nan nan nan nan nan 229 229 nan nan nan nan nan nan nan nan nan nan nan nan nan nan nan 243 244 238 231 226 225 224 224 228 239 243 239 249
nan nan nan 223 224 225 nan nan nan nan nan nan nan nan 252 240 nan nan nan nan nan nan nan nan nan nan nan nan nan nan nan nan nan nan 238 232 229 229 229 225 220 224 232 241